KR4KUV Weather Reports


time (UTC)temp
C
wind
direction
speed
KPH
gust
KPH
rain 1hr
cm
rain 24hr
cm
rain mn
cm
humidity
%
barometer
mb
20260906061114 20 266 0.0 0.0 0.00 0.00 0.00 99 1013.4
20260906060611 20 266 0.0 0.0 0.00 0.00 0.00 99 1013.7
20260906060108 20 266 0.0 0.0 0.00 0.00 0.00 99 1013.5
20260906055603 20 266 0.0 0.0 0.00 0.00 0.00 99 1013.7
20260906055059 20 266 0.0 0.0 0.00 0.00 0.00 99 1013.6
20260906054558 20 266 0.0 0.0 0.00 0.00 0.00 99 1013.7
20260906054054 20 266 0.0 0.0 0.00 0.00 0.00 99 1013.7
20260906053550 20 266 0.0 0.0 0.00 0.00 0.00 99 1013.8
20260906053045 20 266 0.0 0.0 0.00 0.00 0.00 99 1014.1
20260906052541 20 266 0.0 0.0 0.00 0.00 0.00 99 1013.8
20260906052038 20 266 0.0 0.0 0.00 0.00 0.00 99 1013.9
20260906051533 20 266 0.0 0.0 0.00 0.00 0.00 99 1014.0
20260906051029 20 265 0.0 0.0 0.00 0.00 0.00 99 1014.3
20260906050524 20 265 0.0 0.0 0.00 0.00 0.00 99 1014.3
20260906050018 21 267 0.0 0.0 0.00 0.00 0.00 99 1014.3
20260906045517 21 268 0.0 0.0 0.00 0.00 0.00 99 1013.9
20260906045013 21 268 0.0 0.0 0.00 0.00 0.00 99 1013.9
20260906044508 21 268 0.0 0.0 0.00 0.00 0.00 99 1014.3
20260906044004 21 268 0.0 0.0 0.00 0.00 0.00 99 1014.1
20260906043459 21 268 0.0 0.0 0.00 0.00 0.00 99 1014.3
20260906042955 21 268 0.0 0.0 0.00 0.00 0.00 99 1014.4
20260906042454 21 268 0.0 0.0 0.00 0.00 0.00 99 1014.3
20260906041953 21 268 0.0 0.0 0.00 0.00 0.00 99 1014.4
20260906041450 21 268 0.0 0.0 0.00 0.00 0.00 99 1014.5
20260906040949 21 268 0.0 0.0 0.00 0.00 0.00 99 1014.6
20260906040444 21 268 0.0 0.0 0.00 0.00 0.00 99 1014.6
20260906035940 21 269 0.0 0.0 0.00 0.05 0.05 99 1014.5
20260906035435 21 269 0.0 0.0 0.00 0.05 0.05 99 1014.5
20260906034931 21 269 0.0 0.0 0.00 0.05 0.05 99 1014.5
20260906034425 21 268 0.0 0.0 0.00 0.05 0.05 99 1014.6
20260906033920 21 268 0.0 0.0 0.00 0.05 0.05 99 1014.7
20260906033415 21 267 0.0 0.0 0.00 0.05 0.05 99 1014.8
20260906032911 21 268 0.0 0.0 0.00 0.05 0.05 99 1014.6
20260906032407 21 270 0.0 0.0 0.00 0.05 0.05 99 1014.6
20260906031907 21 270 0.0 0.0 0.00 0.05 0.05 99 1014.6
20260906031403 21 270 0.0 0.0 0.00 0.05 0.05 99 1014.6
20260906030857 21 270 0.0 0.0 0.00 0.05 0.05 99 1014.8
20260906030353 21 270 0.0 0.0 0.00 0.05 0.05 99 1014.7
20260906025853 21 270 0.0 0.0 0.00 0.05 0.05 99 1014.8
20260906025347 21 270 0.0 0.0 0.00 0.05 0.05 99 1015.0
20260906024846 21 270 0.0 0.0 0.00 0.05 0.05 99 1014.6
20260906024345 21 270 0.0 0.0 0.00 0.05 0.05 99 1014.8
20260906023840 21 270 0.0 0.0 0.00 0.05 0.05 99 1014.6
20260906023337 21 270 0.0 0.0 0.00 0.05 0.05 99 1014.6
20260906022832 21 270 0.0 0.0 0.00 0.05 0.05 98 1014.5
20260906022326 21 270 0.0 0.0 0.00 0.05 0.05 98 1014.5
20260906021822 21 270 0.0 0.0 0.00 0.05 0.05 98 1014.3
20260906021321 21 269 0.0 0.0 0.00 0.05 0.05 98 1014.3
20260906020816 21 270 0.0 0.0 0.00 0.05 0.05 98 1014.4
20260906020315 21 273 0.0 0.0 0.00 0.05 0.05 98 1014.3
20260906015810 22 272 0.0 0.0 0.00 0.05 0.05 98 1014.0
20260906015308 22 274 0.0 0.0 0.00 0.05 0.05 98 1014.1
20260906014803 22 274 0.0 0.0 0.00 0.05 0.05 97 1014.3
20260906014259 22 273 0.0 0.0 0.00 0.05 0.05 97 1013.9
20260906013754 22 305 0.0 0.0 0.00 0.05 0.05 97 1014.0
20260906013249 22 311 0.0 0.0 0.00 0.05 0.05 97 1013.9
20260906012745 22 286 0.0 0.0 0.00 0.05 0.05 97 1013.7
20260906012239 22 286 0.0 0.0 0.00 0.05 0.05 97 1013.9
20260906011735 22 286 0.0 0.0 0.00 0.05 0.05 97 1013.8
20260906011229 22 286 0.0 0.0 0.00 0.05 0.05 96 1014.0
20260906010724 22 286 0.0 0.0 0.00 0.05 0.05 96 1013.9
20260906010221 22 286 0.0 0.0 0.00 0.05 0.05 96 1013.7
20260906005715 22 286 0.0 0.0 0.00 0.05 0.05 96 1013.8
20260906005215 22 286 0.0 0.0 0.00 0.05 0.05 95 1013.9
20260906004714 22 265 0.0 0.0 0.00 0.05 0.05 95 1013.8
20260906004209 22 261 0.0 0.0 0.00 0.05 0.05 95 1013.8
20260906003704 22 243 0.0 0.0 0.00 0.05 0.05 95 1013.7
20260906003159 22 247 0.0 0.0 0.00 0.05 0.05 95 1013.7
20260906002654 23 246 0.0 0.0 0.00 0.05 0.05 95 1013.9
20260906002149 23 245 0.0 0.0 0.00 0.05 0.05 94 1013.8
20260906001644 23 235 0.0 0.0 0.00 0.05 0.05 94 1013.4
20260906001144 23 243 0.0 0.0 0.00 0.05 0.05 93 1013.7
20260906000639 23 270 0.0 0.0 0.00 0.05 0.05 92 1013.6
20260906000135 23 266 0.0 0.0 0.00 0.05 0.05 92 1013.5
20260905235633 23 258 0.0 0.0 0.00 0.05 0.05 91 1013.4
20260905235129 23 254 0.0 0.0 0.00 0.05 0.05 91 1013.3
20260905234624 24 265 0.0 0.0 0.00 0.05 0.05 90 1013.3
20260905234120 24 266 0.0 0.0 0.00 0.05 0.05 90 1013.1
20260905233614 24 263 0.0 0.0 0.00 0.05 0.05 89 1013.2
20260905233108 25 263 0.0 0.0 0.00 0.05 0.05 87 1012.8
20260905232604 25 272 0.0 0.0 0.00 0.05 0.05 86 1013.1
20260905232100 25 275 0.0 0.0 0.00 0.05 0.05 84 1012.9
20260905231554 25 275 0.0 0.0 0.00 0.05 0.05 84 1013.0
20260905231051 25 275 0.0 0.0 0.00 0.05 0.05 83 1012.9
20260905230551 26 275 0.0 0.0 0.00 0.05 0.05 81 1012.8
20260905230049 26 275 0.0 0.0 0.00 0.05 0.05 78 1012.9
20260905225549 26 277 0.0 0.0 0.00 0.05 0.05 78 1012.8
20260905225044 26 249 0.0 1.6 0.00 0.05 0.05 77 1013.0
20260905224544 26 281 0.0 0.0 0.00 0.05 0.05 78 1012.9
20260905224043 26 288 0.0 0.0 0.00 0.05 0.05 78 1012.9
20260905223541 26 265 0.0 0.0 0.00 0.05 0.05 82 1012.9
20260905223036 26 250 0.0 0.0 0.00 0.05 0.05 83 1012.7
20260905222531 26 252 0.0 0.0 0.00 0.05 0.05 83 1012.8
20260905222026 25 249 0.0 0.0 0.00 0.05 0.05 82 1012.5
20260905221523 26 266 0.0 0.0 0.00 0.05 0.05 84 1012.6
20260905221018 26 243 0.0 3.2 0.00 0.05 0.05 80 1012.7
20260905220514 26 217 0.0 0.0 0.00 0.05 0.05 81 1013.0
20260905220010 26 269 0.0 0.0 0.00 0.05 0.05 79 1013.1
20260905215504 26 261 0.0 0.0 0.00 0.05 0.05 81 1012.8
20260905215000 25 260 0.0 0.0 0.00 0.05 0.05 81 1012.9
20260905214456 26 254 0.0 0.0 0.00 0.05 0.05 81 1013.1
20260905213956 26 238 1.6 3.2 0.00 0.05 0.05 80 1013.0
20260905213452 25 183 3.2 4.8 0.00 0.05 0.05 80 1013.3
20260905212947 26 202 0.0 1.6 0.00 0.05 0.05 80 1013.3
20260905212442 25 246 0.0 1.6 0.00 0.05 0.05 82 1013.4
20260905211941 25 232 0.0 3.2 0.00 0.05 0.05 82 1013.4
20260905211437 23 187 0.0 1.6 0.00 0.05 0.05 85 1013.4
20260905210932 23 259 1.6 1.6 0.00 0.05 0.05 88 1013.5
20260905210427 22 266 0.0 1.6 0.00 0.05 0.05 89 1013.7
20260905205926 22 274 0.0 0.0 0.00 0.05 0.05 91 1013.7
20260905205421 22 263 0.0 1.6 0.00 0.05 0.05 92 1013.9
20260905204920 22 255 0.0 0.0 0.00 0.05 0.05 92 1013.7
20260905204416 21 256 0.0 1.6 0.00 0.05 0.05 93 1013.8
20260905203915 21 177 0.0 1.6 0.00 0.05 0.05 93 1013.9
20260905203411 21 241 0.0 0.0 0.00 0.05 0.05 93 1013.9
20260905202906 21 266 0.0 3.2 0.13 0.05 0.05 92 1013.8
20260905202401 22 265 0.0 0.0 0.00 0.03 0.03 90 1014.0
20260905201856 22 149 1.6 3.2 0.18 0.03 0.03 88 1014.3
20260905201352 22 268 0.0 0.0 0.18 0.03 0.03 86 1014.5
20260905200846 23 248 0.0 1.6 0.00 0.00 0.00 83 1014.7
20260905200342 23 152 3.2 4.8 0.00 0.00 0.00 82 1014.1
20260905195840 23 274 1.6 3.2 0.00 0.00 0.00 82 1014.0
20260905195335 23 316 0.0 1.6 0.00 0.00 0.00 79 1013.8
20260905194831 23 331 0.0 1.6 0.00 0.00 0.00 81 1014.0
20260905194331 23 276 1.6 3.2 0.00 0.00 0.00 77 1013.7
20260905193830 24 210 4.8 8.0 0.00 0.00 0.00 75 1013.5
20260905193325 25 198 6.4 9.7 0.00 0.00 0.00 71 1013.8
20260905192821 27 163 14.5 17.7 0.00 0.00 0.00 67 1013.4
20260905192317 29 90 3.2 9.7 0.00 0.00 0.00 64 1013.2
20260905191815 32 144 4.8 4.8 0.00 0.00 0.00 70 1013.5
20260905191314 32 266 0.0 0.0 0.00 0.00 0.00 67 1013.2
20260905190813 33 266 0.0 0.0 0.00 0.00 0.00 67 1012.8
20260905190307 33 266 0.0 0.0 0.00 0.00 0.00 63 1012.9
20260905185806 34 239 1.6 3.2 0.00 0.00 0.00 55 1012.7
20260905185301 35 178 1.6 1.6 0.00 0.00 0.00 51 1012.8
20260905184800 35 266 0.0 0.0 0.00 0.00 0.00 56 1013.1
20260905184254 36 238 0.0 1.6 0.00 0.00 0.00 57 1013.2
20260905183753 36 247 1.6 3.2 0.00 0.00 0.00 52 1013.1
20260905183248 35 217 0.0 3.2 0.00 0.00 0.00 52 1013.1
20260905182748 35 222 0.0 1.6 0.00 0.00 0.00 56 1013.2
20260905182242 35 261 0.0 0.0 0.00 0.00 0.00 57 1013.3
20260905181737 35 172 3.2 4.8 0.00 0.00 0.00 55 1013.3
20260905181236 36 246 0.0 1.6 0.00 0.00 0.00 53 1013.2
20260905180731 35 175 1.6 3.2 0.00 0.00 0.00 55 1013.5
20260905180226 35 229 0.0 3.2 0.00 0.00 0.00 55 1013.7
20260905175721 36 249 0.0 1.6 0.00 0.00 0.00 53 1013.8
20260905175216 34 246 0.0 1.6 0.00 0.00 0.00 58 1013.9
20260905174711 35 261 0.0 1.6 0.00 0.00 0.00 56 1014.0
20260905174207 35 339 0.0 1.6 0.00 0.00 0.00 52 1014.3
20260905173703 35 213 1.6 1.6 0.00 0.00 0.00 54 1014.1
20260905173158 35 271 0.0 0.0 0.00 0.00 0.00 55 1014.5
20260905172657 35 194 0.0 1.6 0.00 0.00 0.00 54 1014.5
20260905172151 36 248 3.2 3.2 0.00 0.00 0.00 53 1014.6
20260905171648 36 165 0.0 3.2 0.00 0.00 0.00 54 1014.8
20260905171143 36 297 1.6 1.6 0.00 0.00 0.00 52 1014.6
20260905170640 35 282 1.6 4.8 0.00 0.00 0.00 53 1014.6
20260905170135 35 112 0.0 1.6 0.00 0.00 0.00 54 1014.9
20260905165635 35 244 1.6 3.2 0.00 0.00 0.00 54 1014.8
20260905165130 35 279 0.0 0.0 0.00 0.00 0.00 52 1015.1
20260905164625 36 266 1.6 3.2 0.00 0.00 0.00 57 1015.1
20260905164124 35 267 0.0 1.6 0.00 0.00 0.00 58 1015.3
20260905163621 35 291 1.6 1.6 0.00 0.00 0.00 58 1015.2
20260905163117 35 269 1.6 8.0 0.00 0.00 0.00 60 1015.3
20260905162613 34 330 0.0 1.6 0.00 0.00 0.00 59 1015.4
20260905162112 33 329 0.0 1.6 0.00 0.00 0.00 60 1015.5
20260905161612 33 227 1.6 3.2 0.00 0.00 0.00 64 1015.5
20260905161109 33 290 0.0 1.6 0.00 0.00 0.00 63 1015.4
20260905160609 33 305 0.0 1.6 0.00 0.00 0.00 64 1015.7
20260905155558 33 232 1.6 1.6 0.00 0.00 0.00 66 1015.6
20260905155056 32 316 0.0 0.0 0.00 0.00 0.00 69 1015.6
20260905154551 32 341 1.6 1.6 0.00 0.00 0.00 68 1015.6
20260905154047 32 72 0.0 3.2 0.00 0.00 0.00 68 1015.7
20260905153543 32 326 1.6 1.6 0.00 0.00 0.00 68 1015.8
20260905153043 32 284 0.0 0.0 0.00 0.00 0.00 72 1015.4
20260905152537 31 297 0.0 8.0 0.00 0.00 0.00 73 1015.6
20260905152033 31 273 0.0 0.0 0.00 0.00 0.00 72 1015.7
20260905151528 31 359 0.0 3.2 0.00 0.00 0.00 74 1015.8
20260905151023 31 224 1.6 3.2 0.00 0.00 0.00 74 1015.7
20260905150518 31 23 0.0 1.6 0.00 0.00 0.00 75 1015.7
20260905150016 30 228 0.0 0.0 0.00 0.00 0.00 76 1015.8
20260905145515 30 214 0.0 1.6 0.00 0.00 0.00 77 1015.9
20260905145009 30 28 0.0 1.6 0.00 0.00 0.00 77 1015.5
20260905144504 30 242 0.0 1.6 0.00 0.00 0.00 78 1015.8
20260905144003 29 219 1.6 1.6 0.00 0.00 0.00 78 1016.0
20260905143502 29 243 0.0 3.2 0.00 0.00 0.00 79 1015.8
20260905142957 28 249 1.6 4.8 0.00 0.00 0.00 80 1015.5
20260905142455 28 265 0.0 3.2 0.00 0.00 0.00 81 1015.7
20260905141951 28 228 0.0 1.6 0.00 0.00 0.00 82 1015.7
20260905141446 28 256 0.0 1.6 0.00 0.00 0.00 82 1015.8
20260905140942 28 261 0.0 1.6 0.00 0.00 0.00 83 1016.0
20260905140437 28 134 1.6 3.2 0.00 0.00 0.00 83 1015.8
20260905135936 27 265 0.0 1.6 0.00 0.00 0.00 84 1015.8
20260905135432 27 222 1.6 1.6 0.00 0.00 0.00 85 1015.9
20260905134927 27 246 1.6 3.2 0.00 0.00 0.00 86 1015.9
20260905134426 27 237 0.0 1.6 0.00 0.00 0.00 86 1016.0
20260905133921 27 246 0.0 0.0 0.00 0.00 0.00 87 1016.0
20260905133421 26 331 0.0 0.0 0.00 0.00 0.00 88 1016.1
20260905132921 26 250 0.0 3.2 0.00 0.00 0.00 88 1016.2
20260905132416 26 204 1.6 3.2 0.00 0.00 0.00 88 1016.1
20260905131910 26 235 1.6 3.2 0.00 0.00 0.00 89 1016.0
20260905131406 26 98 1.6 1.6 0.00 0.00 0.00 89 1016.1
20260905130907 25 162 3.2 4.8 0.00 0.00 0.00 90 1016.2
20260905130406 25 264 0.0 4.8 0.00 0.00 0.00 91 1015.9
20260905125901 25 211 0.0 4.8 0.00 0.00 0.00 91 1016.2
20260905125355 25 223 0.0 0.0 0.00 0.00 0.00 91 1016.3
20260905124851 25 231 0.0 0.0 0.00 0.00 0.00 92 1016.6
20260905124348 25 250 0.0 0.0 0.00 0.00 0.00 93 1016.6
20260905123848 24 248 0.0 0.0 0.00 0.00 0.00 94 1016.4
20260905123345 24 251 0.0 1.6 0.00 0.00 0.00 95 1016.4
20260905122844 23 275 0.0 1.6 0.00 0.00 0.00 96 1016.2
20260905122343 23 243 0.0 0.0 0.00 0.00 0.00 97 1016.3
20260905121839 23 246 0.0 0.0 0.00 0.00 0.00 99 1016.1
20260905121336 23 242 0.0 0.0 0.00 0.00 0.00 99 1016.2
20260905120834 23 242 0.0 0.0 0.00 0.00 0.00 99 1016.2
20260905120329 22 242 0.0 0.0 0.00 0.00 0.00 99 1016.2
20260905115824 22 242 0.0 0.0 0.00 0.00 0.00 99 1016.1
20260905115324 22 242 0.0 0.0 0.00 0.00 0.00 99 1016.1
20260905114824 22 242 0.0 0.0 0.00 0.00 0.00 99 1016.2
20260905114323 22 242 0.0 0.0 0.00 0.00 0.00 99 1016.1
20260905113822 22 242 0.0 0.0 0.00 0.00 0.00 99 1016.0
20260905113318 22 242 0.0 0.0 0.00 0.00 0.00 99 1016.0
20260905112813 22 242 0.0 0.0 0.00 0.00 0.00 99 1015.7
20260905112308 22 242 0.0 0.0 0.00 0.00 0.00 99 1015.6
20260905111803 22 242 0.0 0.0 0.00 0.00 0.00 99 1015.9
20260905111257 22 242 0.0 0.0 0.00 0.00 0.00 99 1015.6
20260905110756 22 242 0.0 0.0 0.00 0.00 0.00 99 1015.5
20260905110250 22 242 0.0 0.0 0.00 0.00 0.00 99 1015.2
20260905105746 22 242 0.0 0.0 0.00 0.00 0.00 99 1015.3
20260905105244 22 242 0.0 0.0 0.00 0.00 0.00 99 1015.3
20260905104739 22 242 0.0 0.0 0.00 0.00 0.00 99 1014.9
20260905104236 22 242 0.0 0.0 0.00 0.00 0.00 99 1015.1
20260905103730 22 242 0.0 0.0 0.00 0.00 0.00 99 1014.9
20260905103226 22 242 0.0 0.0 0.00 0.00 0.00 99 1014.8
20260905102722 22 242 0.0 0.0 0.00 0.00 0.00 99 1014.7
20260905102218 22 242 0.0 0.0 0.00 0.00 0.00 99 1014.7
20260905101717 22 242 0.0 0.0 0.00 0.00 0.00 99 1014.9
20260905101215 22 242 0.0 0.0 0.00 0.00 0.00 99 1014.6
20260905100712 22 242 0.0 0.0 0.00 0.00 0.00 99 1014.6
20260905100207 22 242 0.0 0.0 0.00 0.00 0.00 99 1014.5
20260905095706 22 242 0.0 0.0 0.00 0.00 0.00 99 1014.6
20260905095201 22 242 0.0 0.0 0.00 0.00 0.00 99 1014.5
20260905094656 22 242 0.0 0.0 0.00 0.00 0.00 99 1014.6
20260905094155 22 242 0.0 0.0 0.00 0.00 0.00 99 1014.6
20260905093649 22 242 0.0 0.0 0.00 0.00 0.00 99 1014.6
20260905093146 22 242 0.0 0.0 0.00 0.00 0.00 99 1014.7
20260905092646 22 242 0.0 0.0 0.00 0.00 0.00 99 1014.5
20260905092142 22 242 0.0 0.0 0.00 0.00 0.00 99 1014.7
20260905091636 22 242 0.0 0.0 0.00 0.00 0.00 99 1014.6
20260905091136 22 242 0.0 0.0 0.00 0.00 0.00 99 1014.6
20260905090630 22 242 0.0 0.0 0.00 0.00 0.00 99 1014.6
20260905090126 22 242 0.0 0.0 0.00 0.00 0.00 99 1014.8
20260905085624 22 242 0.0 0.0 0.00 0.00 0.00 99 1014.7
20260905085120 22 242 0.0 0.0 0.00 0.00 0.00 99 1014.8
20260905084619 22 242 0.0 0.0 0.00 0.00 0.00 99 1014.8
20260905084109 22 242 0.0 0.0 0.00 0.00 0.00 99 1015.1
20260905083609 22 242 0.0 0.0 0.00 0.00 0.00 99 1014.8
20260905083106 22 242 0.0 0.0 0.00 0.00 0.00 99 1015.0
20260905082601 22 242 0.0 0.0 0.00 0.00 0.00 99 1015.2
20260905082057 22 242 0.0 0.0 0.00 0.00 0.00 99 1015.1
20260905081556 22 242 0.0 0.0 0.00 0.00 0.00 99 1015.2
20260905081050 22 242 0.0 0.0 0.00 0.00 0.00 99 1015.3
20260905080544 22 242 0.0 0.0 0.00 0.00 0.00 99 1015.2
20260905080039 22 242 0.0 0.0 0.00 0.00 0.00 99 1015.3
20260905075532 22 242 0.0 0.0 0.00 0.00 0.00 99 1015.2
20260905075027 22 242 0.0 0.0 0.00 0.00 0.00 99 1015.2
20260905074521 22 242 0.0 0.0 0.00 0.00 0.00 99 1015.4
20260905074017 22 242 0.0 0.0 0.00 0.00 0.00 99 1015.5
20260905073506 22 242 0.0 0.0 0.00 0.00 0.00 99 1015.5
20260905073002 22 242 0.0 0.0 0.00 0.00 0.00 99 1015.3
20260905072456 22 242 0.0 0.0 0.00 0.00 0.00 99 1015.4
20260905071951 23 242 0.0 0.0 0.00 0.00 0.00 99 1015.7
20260905071449 22 242 0.0 0.0 0.00 0.00 0.00 99 1015.7
20260905070947 23 242 0.0 0.0 0.00 0.00 0.00 99 1015.5
20260905070444 22 242 0.0 0.0 0.00 0.00 0.00 99 1015.6
20260905065938 23 242 0.0 0.0 0.00 0.00 0.00 99 1015.8
20260905065436 23 242 0.0 0.0 0.00 0.00 0.00 99 1015.7
20260905064932 23 242 0.0 0.0 0.00 0.00 0.00 99 1016.0
20260905064426 23 242 0.0 0.0 0.00 0.00 0.00 99 1016.0
20260905063921 23 242 0.0 0.0 0.00 0.00 0.00 99 1016.0
20260905063416 23 242 0.0 0.0 0.00 0.00 0.00 99 1016.0
20260905062912 23 242 0.0 0.0 0.00 0.00 0.00 99 1016.1
20260905062406 23 241 0.0 0.0 0.00 0.00 0.00 99 1016.0
20260905061901 23 249 0.0 0.0 0.00 0.00 0.00 99 1016.0